When you browse on this site, cookies collect data to enhance your experience and personalize the content and advertising you see.
Visit our Privacy Policy to learn more. By continuing to use the site, you agree to this use of cookies and data.
  • In Portugal
  • List of Countries
  • For 7 days
  • Water Temperature
  • Satellite Maps
  • Weather Map
  • Weather Widgets
  • user-avatar
    Login

    Hourly Weather Solno

    Today, 16 June, Sunday

    Time Temperature Precipitation Wind Pressure Humidity
    00:00 +19°C° 0.1 mm 5 mps 752 mmHg 94%
    01:00 +19°C° 0 mm 6 mps 753 mmHg 97%
    02:00 +19°C° 0 mm 6 mps 753 mmHg 96%
    03:00 +17°C° 0 mm 6 mps 753 mmHg 95%
    04:00 +16°C° 0 mm 6 mps 753 mmHg 94%
    05:00 +16°C° 0 mm 6 mps 753 mmHg 94%
    06:00 +16°C° 0 mm 6 mps 754 mmHg 93%
    07:00 +16°C° 0 mm 6 mps 755 mmHg 91%
    08:00 +16°C° 0 mm 6 mps 755 mmHg 90%
    09:00 +16°C° 0 mm 6 mps 755 mmHg 88%
    10:00 +16°C° 0 mm 6 mps 756 mmHg 86%
    11:00 +17°C° 0 mm 6 mps 756 mmHg 84%
    12:00 +17°C° 0 mm 6 mps 757 mmHg 82%
    13:00 +17°C° 0 mm 6 mps 757 mmHg 80%
    14:00 +19°C° 0 mm 6 mps 757 mmHg 78%
    15:00 +19°C° 0 mm 6 mps 757 mmHg 76%
    16:00 +19°C° 0 mm 6 mps 757 mmHg 74%
    17:00 +17°C° 0 mm 5 mps 757 mmHg 76%
    18:00 +17°C° 0 mm 4 mps 757 mmHg 78%
    19:00 +17°C° 0 mm 4 mps 758 mmHg 80%
    20:00 +16°C° 0 mm 3 mps 758 mmHg 84%
    21:00 +14°C° 0 mm 3 mps 758 mmHg 88%
    22:00 +13°C° 0 mm 3 mps 758 mmHg 92%
    23:00 +13°C° 0 mm 3 mps 759 mmHg 93%

    Tomorrow, 17 June, Monday

    Time Temperature Precipitation Wind Pressure Humidity
    00:00 +12°C° 0 mm 3 mps 759 mmHg 94%
    01:00 +12°C° 0 mm 3 mps 759 mmHg 95%
    02:00 +13°C° 0 mm 2 mps 759 mmHg 95%
    03:00 +13°C° 0 mm 2 mps 759 mmHg 95%
    04:00 +13°C° 0 mm 2 mps 759 mmHg 95%
    05:00 +15°C° 0 mm 2 mps 759 mmHg 90%
    06:00 +16°C° 0 mm 2 mps 760 mmHg 84%
    07:00 +18°C° 0 mm 2 mps 760 mmHg 78%
    08:00 +19°C° 0 mm 2 mps 760 mmHg 72%
    09:00 +20°C° 0 mm 2 mps 760 mmHg 67%
    10:00 +21°C° 0 mm 2 mps 760 mmHg 61%
    11:00 +23°C° 0 mm 2 mps 760 mmHg 60%
    12:00 +24°C° 0 mm 2 mps 760 mmHg 59%
    13:00 +24°C° 0 mm 2 mps 760 mmHg 57%
    14:00 +24°C° 0.1 mm 2 mps 760 mmHg 61%
    15:00 +24°C° 0.1 mm 2 mps 760 mmHg 64%
    16:00 +23°C° 0.1 mm 2 mps 760 mmHg 68%
    17:00 +23°C° 0.1 mm 2 mps 759 mmHg 73%
    18:00 +21°C° 0.1 mm 2 mps 759 mmHg 79%
    19:00 +21°C° 0.1 mm 1 mps 759 mmHg 85%
    20:00 +19°C° 0 mm 1 mps 759 mmHg 87%
    21:00 +18°C° 0 mm 1 mps 760 mmHg 89%
    22:00 +15°C° 0 mm 1 mps 760 mmHg 91%
    23:00 +15°C° 0 mm 1 mps 760 mmHg 92%

    Day after tomorrow, 18 June, Tuesday

    Time Temperature Precipitation Wind Pressure Humidity
    00:00 +15°C° 0 mm 1 mps 760 mmHg 92%
    01:00 +15°C° 0 mm 1 mps 759 mmHg 93%
    02:00 +15°C° 0 mm 1 mps 759 mmHg 93%
    03:00 +14°C° 0 mm 1 mps 759 mmHg 94%
    04:00 +14°C° 0 mm 2 mps 759 mmHg 94%
    05:00 +16°C° 0 mm 2 mps 759 mmHg 89%
    06:00 +18°C° 0 mm 2 mps 759 mmHg 85%
    07:00 +19°C° 0 mm 2 mps 760 mmHg 80%
    08:00 +21°C° 0 mm 2 mps 759 mmHg 74%
    09:00 +23°C° 0 mm 2 mps 759 mmHg 67%
    10:00 +25°C° 0 mm 2 mps 759 mmHg 61%
    11:00 +26°C° 0 mm 2 mps 759 mmHg 58%
    12:00 +26°C° 0 mm 2 mps 758 mmHg 56%
    13:00 +27°C° 0 mm 2 mps 758 mmHg 54%
    14:00 +27°C° 0 mm 3 mps 758 mmHg 55%
    15:00 +27°C° 0 mm 3 mps 757 mmHg 57%
    16:00 +26°C° 0 mm 3 mps 757 mmHg 58%
    17:00 +25°C° 0 mm 3 mps 757 mmHg 64%
    18:00 +24°C° 0 mm 2 mps 756 mmHg 70%
    19:00 +23°C° 0 mm 2 mps 756 mmHg 75%
    20:00 +21°C° 0 mm 2 mps 756 mmHg 78%
    21:00 +19°C° 0 mm 2 mps 756 mmHg 81%
    22:00 +18°C° 0 mm 2 mps 756 mmHg 84%
    23:00 +17°C° 0 mm 2 mps 756 mmHg 85%

    19 June, Wednesday

    Time Temperature Precipitation Wind Pressure Humidity
    00:00 +17°C° 0 mm 3 mps 756 mmHg 85%
    01:00 +16°C° 0 mm 3 mps 755 mmHg 86%
    02:00 +16°C° 0 mm 3 mps 755 mmHg 87%
    03:00 +16°C° 0 mm 3 mps 755 mmHg 87%
    04:00 +16°C° 0 mm 3 mps 755 mmHg 88%
    05:00 +18°C° 0 mm 3 mps 754 mmHg 85%
    06:00 +20°C° 0 mm 4 mps 754 mmHg 81%
    07:00 +21°C° 0 mm 4 mps 754 mmHg 77%
    08:00 +22°C° 0 mm 4 mps 754 mmHg 74%
    09:00 +25°C° 0 mm 4 mps 754 mmHg 70%
    10:00 +26°C° 0 mm 4 mps 754 mmHg 66%
    11:00 +26°C° 0.1 mm 4 mps 753 mmHg 65%
    12:00 +27°C° 0.1 mm 4 mps 753 mmHg 64%
    13:00 +28°C° 0.1 mm 3 mps 752 mmHg 63%
    14:00 +27°C° 0.6 mm 3 mps 752 mmHg 67%
    15:00 +27°C° 0.6 mm 2 mps 752 mmHg 70%
    16:00 +27°C° 0.6 mm 1 mps 751 mmHg 74%
    17:00 +26°C° 0.6 mm 1 mps 751 mmHg 77%
    18:00 +25°C° 0.6 mm 1 mps 751 mmHg 80%
    19:00 +25°C° 0.6 mm 1 mps 750 mmHg 84%
    20:00 +23°C° 0 mm 1 mps 750 mmHg 87%
    21:00 +22°C° 0 mm 1 mps 750 mmHg 90%
    22:00 +21°C° 0 mm 1 mps 750 mmHg 93%
    23:00 +20°C° 0 mm 2 mps 750 mmHg 93%

    20 June, Thursday

    Time Temperature Precipitation Wind Pressure Humidity
    00:00 +19°C° 0 mm 2 mps 750 mmHg 94%
    01:00 +19°C° 0 mm 2 mps 750 mmHg 95%
    02:00 +19°C° 0 mm 2 mps 750 mmHg 95%
    03:00 +19°C° 0 mm 2 mps 750 mmHg 94%
    04:00 +19°C° 0 mm 2 mps 750 mmHg 94%
    05:00 +20°C° 0 mm 2 mps 750 mmHg 91%
    06:00 +22°C° 0 mm 3 mps 750 mmHg 87%
    07:00 +24°C° 0 mm 3 mps 750 mmHg 83%
    08:00 +26°C° 0.6 mm 3 mps 750 mmHg 77%
    09:00 +27°C° 0.6 mm 3 mps 750 mmHg 71%
    10:00 +29°C° 0.6 mm 3 mps 751 mmHg 65%
    11:00 +29°C° 0.6 mm 3 mps 751 mmHg 64%
    12:00 +29°C° 0.6 mm 3 mps 751 mmHg 63%
    13:00 +29°C° 0.6 mm 3 mps 751 mmHg 62%
    14:00 +28°C° 0.5 mm 3 mps 751 mmHg 66%
    15:00 +27°C° 0.5 mm 3 mps 751 mmHg 69%
    16:00 +27°C° 0.5 mm 3 mps 751 mmHg 73%
    17:00 +25°C° 0.6 mm 4 mps 751 mmHg 79%
    18:00 +21°C° 0.6 mm 4 mps 751 mmHg 85%
    19:00 +19°C° 0.6 mm 4 mps 751 mmHg 92%
    20:00 +19°C° 0.3 mm 3 mps 752 mmHg 92%
    21:00 +18°C° 0.3 mm 2 mps 752 mmHg 93%
    22:00 +18°C° 0.3 mm 1 mps 753 mmHg 93%
    23:00 +17°C° 0 mm 2 mps 753 mmHg 94%

    21 June, Friday

    Time Temperature Precipitation Wind Pressure Humidity
    00:00 +16°C° 0 mm 2 mps 753 mmHg 95%
    01:00 +16°C° 0 mm 2 mps 753 mmHg 96%
    02:00 +15°C° 0 mm 2 mps 753 mmHg 95%
    03:00 +15°C° 0 mm 2 mps 753 mmHg 95%
    04:00 +15°C° 0 mm 1 mps 753 mmHg 94%
    05:00 +16°C° 0 mm 2 mps 754 mmHg 91%
    06:00 +16°C° 0 mm 3 mps 754 mmHg 89%
    07:00 +17°C° 0 mm 4 mps 754 mmHg 86%
    08:00 +17°C° 0.1 mm 4 mps 754 mmHg 83%
    09:00 +17°C° 0.1 mm 4 mps 755 mmHg 81%
    10:00 +18°C° 0.1 mm 4 mps 755 mmHg 78%
    11:00 +17°C° 0.9 mm 4 mps 755 mmHg 83%
    12:00 +15°C° 0.9 mm 4 mps 755 mmHg 87%
    13:00 +14°C° 0.9 mm 4 mps 755 mmHg 91%
    14:00 +14°C° 0.7 mm 3 mps 755 mmHg 93%
    15:00 +15°C° 0.7 mm 2 mps 755 mmHg 95%
    16:00 +15°C° 0.7 mm 2 mps 755 mmHg 96%
    17:00 +15°C° 0 mm 2 mps 755 mmHg 95%
    18:00 +15°C° 0 mm 2 mps 755 mmHg 94%
    19:00 +15°C° 0 mm 2 mps 755 mmHg 93%
    20:00 +14°C° 0 mm 1 mps 756 mmHg 94%
    21:00 +13°C° 0 mm 1 mps 756 mmHg 95%
    22:00 +12°C° 0 mm 0 mps 756 mmHg 96%
    23:00 +12°C° 0 mm 1 mps 756 mmHg 95%
    Show more